Flag for Colombia Weather past 2 weeks in Villavicencio, Colombia

Now
48 °F

Scattered clouds.


Feels Like: 47 °F
Forecast: 70 / 88 °F
Wind: 3 mph from Northeast

Location: Bogota / Eldorado

Current Time: May 5, 2015 at 7:26:57 AM

Latest Report: May 5, 2015 at 7:00 AM


Visibility: N/A

Pressure: 30.38 "Hg

Humidity: 94%

Dew point: 46 °F

Location of VillavicencioLocation

Historic Weather in Villavicencio — Graph

°F

Villavicencio temperature yesterday

Maximum temperature yesterday: 70 °F (at 2:00 PM)
Minimum temperature yesterday: 50 °F (at 10:00 PM)
Average temperature yesterday: 58 °F

Past Weeks' High & Low Weather Summary

 TemperatureHumidityPressure
High73 °F (May 2, 12:00 PM)100% (Apr 20, 11:00 AM)30.40 "Hg (Apr 20, 11:00 AM)
Low45 °F (May 2, 12:00 AM)25% (May 3, 11:00 AM)30.20 "Hg (Apr 27, 4:00 PM)
Average58 °F72%30.31 "Hg
* Reported Apr 20 6:00 AM — May 5 6:00 AM, Villavicencio, Weather by CustomWeather, © 2015

Note: Actual official high and low records may vary slightly from our data, if they occured in-between our weather recording intervals... More about our weather records

Advertising

Villavicencio weather history for previous 24 hours

 ConditionsComfort  
Time TempWeatherWind HumidityBarometerVisibility
6:00 AM
Tue, May 5
46 °FFog.5 mph93%30.37 "HgN/A
5:00 AM48 °FFog.5 mph94%30.35 "Hg5 mi
4:00 AM45 °FFog.2 mph93%30.35 "Hg5 mi
3:00 AM48 °FPassing clouds.2 mph94%30.34 "HgN/A
2:00 AM50 °FPassing clouds.5 mph88%30.35 "HgN/A
1:00 AM50 °FPassing clouds.2 mph94%30.37 "HgN/A
12:00 AM52 °FPassing clouds.8 mph88%30.38 "HgN/A
11:00 PM
Mon, May 4
50 °FPassing clouds.6 mph94%30.39 "HgN/A
10:00 PM50 °FPassing clouds.2 mph94%30.37 "HgN/A
9:00 PM52 °FPassing clouds.2 mph94%30.37 "HgN/A
8:00 PM54 °FPassing clouds.2 mph94%30.34 "HgN/A
7:00 PM55 °FThunderstorms. Passing clouds.3 mph94%30.32 "HgN/A
6:00 PM61 °FScattered clouds.12 mph72%30.27 "Hg5 mi
5:00 PM64 °FScattered clouds.9 mph64%30.25 "HgN/A
4:00 PM66 °FScattered clouds.15 mph60%30.24 "HgN/A
3:00 PM68 °FScattered clouds.14 mph56%30.26 "HgN/A
2:00 PM70 °FScattered clouds.7 mph40%30.28 "HgN/A
1:00 PM64 °FScattered clouds.14 mph64%30.31 "HgN/A
12:00 PM68 °FBroken clouds.5 mph40%30.33 "HgN/A
11:00 AM68 °FScattered clouds.5 mph43%30.35 "HgN/A
10:00 AM63 °FScattered clouds.2 mph56%30.36 "HgN/A
9:00 AM61 °FScattered clouds.6 mph63%30.37 "HgN/A
8:00 AM55 °FPartly sunny.6 mph82%30.36 "HgN/A
7:00 AM54 °FScattered clouds.5 mph88%30.34 "Hg5 mi
Weather by CustomWeather, © 2015

See weather overviewHow to use our weather pages